Find LES 9

NORAD ID: 8747 Int'l Des: 1976-023 Owner: SAMSO Country: US operational
HEOCIRCULARGSO

实时位置

正在加载3D地球...

关于 LES 9

正在加载描述...

即将过境

Passes for default location (London). Set your location on the main map for personalized predictions.

高度历史

Loading altitude history...

两行轨道根数

1 8747U 76023B 26137.22184014 -.00000127 00000-0 00000+0 0 9995
2 8747 22.3002 37.4390 0023339 181.5383 352.8628 1.00273812129361
Epoch: May 17, 2026 • Age: 22 hours

当前状态

高度 35710.7 km
速度 3.08 km/s
星下点 13.98°N, 100.93°W
类型 other

Most Searched